TimeCST,TemperatureF,Dew PointF,Humidity,Sea Level PressureIn,VisibilityMPH,Wind Direction,Wind SpeedMPH,Gust SpeedMPH,PrecipitationIn,Events,Conditions,WindDirDegrees,DateUTC
12:53 AM,15.1,6.1,68,29.99,10.0,NW,18.4,26.5,N/A,,Scattered Clouds,310,2012-12-04 06:53:00
1:53 AM,15.1,5.0,64,30.02,10.0,WNW,19.6,28.8,N/A,,Partly Cloudy,300,2012-12-04 07:53:00
2:53 AM,15.1,6.1,68,30.06,10.0,WNW,16.1,-,N/A,,Mostly Cloudy,300,2012-12-04 08:53:00
3:53 AM,16.0,7.0,68,30.08,10.0,NW,17.3,-,N/A,,Overcast,310,2012-12-04 09:53:00
4:53 AM,17.1,7.0,65,30.12,10.0,NW,15.0,-,N/A,,Overcast,310,2012-12-04 10:53:00
5:53 AM,15.1,7.0,70,30.14,10.0,NW,13.8,-,N/A,,Scattered Clouds,320,2012-12-04 11:53:00
6:53 AM,14.0,7.0,74,30.18,10.0,NW,5.8,-,N/A,,Partly Cloudy,320,2012-12-04 12:53:00
7:53 AM,12.9,6.1,74,30.24,10.0,NW,8.1,-,N/A,,Clear,320,2012-12-04 13:53:00
8:53 AM,12.9,6.1,74,30.27,10.0,NW,12.7,-,N/A,,Clear,320,2012-12-04 14:53:00
9:53 AM,15.1,5.0,64,30.30,10.0,NW,13.8,-,N/A,,Partly Cloudy,320,2012-12-04 15:53:00
10:53 AM,16.0,6.1,65,30.32,10.0,NW,12.7,-,N/A,,Partly Cloudy,320,2012-12-04 16:53:00
11:53 AM,18.0,8.1,65,30.34,10.0,NNW,11.5,-,N/A,,Partly Cloudy,330,2012-12-04 17:53:00
12:53 PM,19.0,8.1,62,30.33,10.0,NNW,9.2,-,N/A,,Scattered Clouds,330,2012-12-04 18:53:00
1:53 PM,19.0,9.0,65,30.33,10.0,NNW,10.4,-,N/A,,Scattered Clouds,340,2012-12-04 19:53:00
2:53 PM,19.9,10.0,65,30.34,10.0,NNW,9.2,-,N/A,,Partly Cloudy,330,2012-12-04 20:53:00
3:53 PM,19.0,10.0,68,30.37,10.0,NNW,5.8,-,N/A,,Partly Cloudy,330,2012-12-04 21:53:00
4:53 PM,16.0,10.0,77,30.39,10.0,NNW,4.6,-,N/A,,Partly Cloudy,340,2012-12-04 22:53:00
5:53 PM,15.1,10.0,80,30.38,10.0,NE,5.8,-,N/A,,Clear,40,2012-12-04 23:53:00
6:53 PM,16.0,10.9,81,30.39,10.0,NE,9.2,-,N/A,,Clear,50,2012-12-05 00:53:00
7:53 PM,14.0,10.0,84,30.40,10.0,ENE,5.8,-,N/A,,Clear,60,2012-12-05 01:53:00
8:53 PM,12.9,9.0,84,30.40,10.0,East,4.6,-,N/A,,Clear,90,2012-12-05 02:53:00
9:53 PM,12.9,8.1,81,30.42,10.0,SSE,4.6,-,N/A,,Clear,150,2012-12-05 03:53:00
10:53 PM,12.0,8.1,84,30.41,10.0,ESE,3.5,-,N/A,,Clear,120,2012-12-05 04:53:00
11:53 PM,14.0,10.0,84,30.39,10.0,ESE,8.1,-,N/A,,Mostly Cloudy,120,2012-12-05 05:53:00